NG7N Weather Reports


time (UTC)temp
F
wind
direction
speed
knots
gust
knots
rain 1hr
in
rain 24hr
in
rain mn
in
humidity
%
barometer
mb
20260505121927 53 155 1.7 7.8 0.00 0.00 0.00 89 1013.9
20260505120427 53 186 2.6 8.7 0.00 0.00 0.00 90 1013.9
20260505113426 53 181 2.6 12.2 0.00 0.00 0.00 90 1013.8
20260505111927 53 192 1.7 9.6 0.00 0.00 0.00 90 1013.6
20260505110927 53 180 2.6 8.7 0.00 0.00 0.00 90 1013.6
20260505101926 53 174 2.6 7.8 0.00 0.00 0.00 90 1013.3
20260505094927 53 193 2.6 9.6 0.00 0.00 0.00 90 1013.1
20260505094426 53 191 5.2 10.4 0.00 0.00 0.00 90 1013.0
20260505091427 53 179 4.3 8.7 0.00 0.00 0.00 90 1012.9
20260505090926 53 177 2.6 6.1 0.00 0.00 0.00 90 1012.9
20260505090427 53 179 3.5 8.7 0.00 0.00 0.00 90 1012.9
20260505084926 53 181 3.5 8.7 0.00 0.00 0.00 90 1012.9
20260505084427 53 176 3.5 7.8 0.00 0.00 0.00 90 1012.7
20260505083426 53 184 4.3 9.6 0.00 0.00 0.00 90 1012.7
20260505080927 53 182 2.6 7.0 0.00 0.00 0.00 90 1012.8
20260505074926 54 185 2.6 5.2 0.00 0.00 0.00 89 1012.6
20260505071927 54 223 3.5 9.6 0.00 0.00 0.00 88 1012.4
20260505070926 54 194 4.3 8.7 0.00 0.00 0.00 88 1012.1
20260505061926 55 189 3.5 7.8 0.00 0.00 0.00 85 1011.6
20260505052428 57 175 3.5 9.6 0.00 0.00 0.00 82 1011.3
20260505051427 58 208 3.5 8.7 0.00 0.00 0.00 81 1011.2
20260505050926 58 180 2.6 9.6 0.00 0.00 0.00 81 1011.2
20260505040927 62 225 3.5 8.7 0.00 0.00 0.00 75 1010.4
20260505034926 63 217 2.6 6.1 0.00 0.00 0.00 73 1010.3
20260505031426 65 237 7.0 11.3 0.00 0.00 0.00 68 1009.8
20260505030427 67 214 3.5 11.3 0.00 0.00 0.00 66 1009.8
20260505024427 70 231 2.6 8.7 0.00 0.00 0.00 60 1009.4
20260505021426 74 195 1.7 4.3 0.00 0.00 0.00 53 1009.4
20260505014426 76 223 1.7 7.8 0.00 0.00 0.00 51 1009.4
20260505013927 76 191 2.6 5.2 0.00 0.00 0.00 51 1009.4
20260505012426 76 183 3.5 6.1 0.00 0.00 0.00 50 1009.5
20260505011426 77 188 1.7 4.3 0.00 0.00 0.00 50 1009.6
20260505010426 77 215 0.9 7.0 0.00 0.00 0.00 50 1009.6
20260505004926 77 193 2.6 5.2 0.00 0.00 0.00 48 1009.6
20260505003926 78 228 2.6 5.2 0.00 0.00 0.00 47 1009.7
20260505003426 78 217 0.9 4.3 0.00 0.00 0.00 46 1009.7
20260505000428 78 0 0.0 8.7 0.00 0.00 0.00 46 1009.7
20260504235426 77 158 4.3 6.1 0.00 0.00 0.00 45 1009.7
20260504233427 78 200 1.7 5.2 0.00 0.00 0.00 44 1009.7
20260504232926 78 173 1.7 6.1 0.00 0.00 0.00 44 1009.7
20260504231927 78 166 0.9 5.2 0.00 0.00 0.00 43 1009.7
20260504230926 78 145 3.5 7.0 0.00 0.00 0.00 44 1009.8
20260504220926 77 123 2.6 5.2 0.00 0.00 0.00 47 1010.5
20260504214927 77 0 0.0 5.2 0.00 0.00 0.00 48 1010.7
20260504211926 75 224 2.6 7.0 0.00 0.00 0.00 53 1010.8
20260504205926 74 165 3.5 8.7 0.00 0.00 0.00 53 1010.7
20260504203426 74 192 1.7 7.0 0.00 0.00 0.00 55 1010.8
20260504194926 71 189 2.6 7.8 0.00 0.00 0.00 57 1010.8
20260504193926 71 148 1.7 6.1 0.00 0.00 0.00 58 1010.8
20260504191926 70 213 3.5 7.8 0.00 0.00 0.00 57 1010.9
20260504185426 71 244 1.7 3.5 0.00 0.00 0.00 55 1011.1
20260504184925 71 178 0.9 5.2 0.00 0.00 0.00 54 1011.1
20260504182426 70 230 0.9 3.5 0.00 0.00 0.00 54 1011.2
20260504181927 70 216 1.7 4.3 0.00 0.00 0.00 53 1011.2
20260504181426 69 177 1.7 3.5 0.00 0.00 0.00 54 1011.2
20260504180926 68 243 0.9 3.5 0.00 0.00 0.00 57 1011.2
20260504180426 67 233 2.6 5.2 0.00 0.00 0.00 58 1011.2
20260504173929 0 243 0.9 0.0 0.00 0.00 0.00 55 1011.1
20260504173927 68 243 0.9 4.3 0.00 0.00 0.00 55 1011.1
20260504172926 68 226 1.7 3.5 0.00 0.00 0.00 55 1011.1
20260504171926 67 247 0.9 3.5 0.00 0.00 0.00 57 1011.1
20260504170926 68 231 0.9 3.5 0.00 0.00 0.00 56 1011.0
20260504150925 63 0 0.0 1.7 0.00 0.00 0.00 69 1010.3
20260504140427 59 143 0.9 2.6 0.00 0.00 0.00 71 1009.9
20260504130425 58 0 0.0 1.7 0.00 0.00 0.00 67 1009.5